DW9425 Weather Reports


Display with metric or nautical units.
time (UTC)temp
F
wind
direction
speed
MPH
gust
MPH
rain 1hr
in
rain 24hr
in
rain mn
in
humidity
%
barometer
mb
20260902234518 85 224 6.0 15.0 0.00 0.00 0.00 22 1019.9
20260902233018 84 234 7.0 13.0 0.00 0.00 0.00 24 1020.0
20260902231515 84 210 4.0 14.0 0.00 0.00 0.00 23 1020.1
20260902230014 86 259 9.0 18.0 0.00 0.00 0.00 22 1020.2
20260902224514 87 261 9.0 18.0 0.00 0.00 0.00 23 1020.3
20260902223013 87 274 8.0 16.0 0.00 0.00 0.00 22 1020.3
20260902221518 87 273 5.0 14.0 0.00 0.00 0.00 22 1020.4
20260902220019 87 219 12.0 22.0 0.00 0.00 0.00 23 1020.5
20260902214509 88 235 9.0 19.0 0.00 0.00 0.00 22 1020.5
20260902213008 88 249 8.0 17.0 0.00 0.00 0.00 22 1020.6
20260902211506 88 264 12.0 22.0 0.00 0.00 0.00 21 1020.8
20260902210004 87 259 11.0 19.0 0.00 0.00 0.00 21 1021.0
20260902204602 86 252 8.0 19.0 0.00 0.00 0.00 23 1021.1
20260902203058 87 220 6.0 19.0 0.00 0.00 0.00 23 1021.4
20260902201609 86 280 7.0 20.0 0.00 0.00 0.00 25 1021.6
20260902200052 85 187 10.0 21.0 0.00 0.00 0.00 26 1021.7
20260902194553 85 196 8.0 29.0 0.00 0.00 0.00 26 1022.0
20260902193049 85 238 7.0 15.0 0.00 0.00 0.00 27 1022.0
20260902191547 85 279 7.0 14.0 0.00 0.00 0.00 28 1022.1
20260902190043 84 320 6.0 15.0 0.00 0.00 0.00 28 1022.3
20260902184539 83 196 9.0 14.0 0.00 0.00 0.00 30 1022.5
20260902183036 83 266 5.0 11.0 0.00 0.00 0.00 33 1022.8
20260902181532 81 253 5.0 9.0 0.00 0.00 0.00 35 1023.0
20260902180030 80 304 5.0 9.0 0.00 0.00 0.00 33 1023.1
20260902174529 80 307 4.0 9.0 0.00 0.00 0.00 34 1023.1
20260902173024 79 308 3.0 11.0 0.00 0.00 0.00 35 1023.2
20260902171524 78 325 7.0 10.0 0.00 0.00 0.00 34 1023.4
20260902170019 78 296 4.0 9.0 0.00 0.00 0.00 35 1023.4
20260902164515 76 327 5.0 8.0 0.00 0.00 0.00 40 1023.4
20260902163010 75 320 4.0 8.0 0.00 0.00 0.00 44 1023.4
20260902161511 74 288 4.0 8.0 0.00 0.00 0.00 46 1023.3
20260902160006 73 270 2.0 5.0 0.00 0.00 0.00 50 1023.3
20260902154601 71 341 0.0 8.0 0.00 0.00 0.00 54 1023.3
20260902153056 70 309 2.0 5.0 0.00 0.00 0.00 56 1023.3
20260902151558 68 312 1.0 4.0 0.00 0.00 0.00 61 1023.4
20260902150047 66 342 3.0 6.0 0.00 0.00 0.00 66 1023.3
20260902144557 64 341 1.0 5.0 0.00 0.00 0.00 71 1023.4
20260902143039 62 317 3.0 8.0 0.00 0.00 0.00 75 1023.3
20260902141538 61 344 6.0 10.0 0.00 0.00 0.00 77 1023.1
20260902140031 60 333 5.0 10.0 0.00 0.00 0.00 79 1023.1
20260902134532 59 345 4.0 6.0 0.00 0.00 0.00 80 1022.9
20260902133019 59 333 2.0 8.0 0.00 0.00 0.00 79 1022.8
20260902131615 58 355 2.0 4.0 0.00 0.00 0.00 78 1022.5
20260902130038 58 355 1.0 4.0 0.00 0.00 0.00 79 1022.4
20260902124539 58 360 2.0 5.0 0.00 0.00 0.00 80 1022.4
20260902123034 58 355 1.0 4.0 0.00 0.00 0.00 79 1022.4
20260902121531 58 355 2.0 4.0 0.00 0.00 0.00 79 1022.2
20260902120029 59 355 0.0 4.0 0.00 0.00 0.00 79 1022.2
20260902114529 59 355 0.0 0.0 0.00 0.05 0.00 79 1022.3
20260902113027 59 355 0.0 4.0 0.00 0.05 0.00 79 1022.2
20260902111525 60 355 2.0 4.0 0.00 0.05 0.00 79 1022.2
20260902110022 60 355 0.0 3.0 0.00 0.05 0.00 78 1022.2
20260902104535 61 355 2.0 4.0 0.00 0.05 0.00 78 1022.1
20260902103022 61 355 3.0 6.0 0.00 0.05 0.00 78 1022.1
20260902101528 61 87 1.0 3.0 0.00 0.05 0.00 74 1022.2
20260902100016 62 87 1.0 2.0 0.00 0.05 0.00 75 1022.1
20260902094514 62 87 0.0 0.0 0.00 0.05 0.00 74 1022.1
20260902093013 63 87 0.0 0.0 0.00 0.05 0.00 74 1022.1
20260902091511 63 87 0.0 2.0 0.00 0.05 0.00 75 1022.1
20260902090009 63 87 0.0 0.0 0.00 0.05 0.00 73 1022.1
20260902084507 64 87 0.0 0.0 0.00 0.24 0.00 72 1022.1
20260902083007 64 87 0.0 2.0 0.00 0.24 0.00 71 1022.2
20260902081505 64 87 0.0 2.0 0.00 0.24 0.00 71 1022.2
20260902080003 65 87 0.0 0.0 0.00 0.28 0.00 70 1022.3
20260902073058 66 87 1.0 3.0 0.00 0.28 0.00 66 1022.5
20260902071556 67 87 0.0 2.0 0.00 0.28 0.00 65 1022.4
20260902070054 67 87 2.0 3.0 0.00 0.28 0.00 65 1022.3
20260902064652 68 49 1.0 3.0 0.00 0.28 0.00 63 1022.2
20260902063051 68 49 1.0 3.0 0.00 0.28 0.00 63 1022.2
20260902061555 68 49 0.0 1.0 0.00 0.28 0.00 63 1022.1
20260902060046 68 49 0.0 0.0 0.00 0.28 0.00 64 1022.1
20260902054547 68 49 0.0 0.0 0.00 0.28 0.27 64 1022.2
20260902053053 68 49 0.0 0.0 0.00 0.28 0.27 65 1022.2
20260902051550 68 49 0.0 2.0 0.00 0.28 0.27 65 1022.3
20260902050045 68 49 0.0 0.0 0.00 0.28 0.27 64 1022.3
20260902044545 69 49 0.0 0.0 0.00 0.30 0.27 63 1022.3
20260902043044 69 49 0.0 0.0 0.00 0.30 0.27 63 1022.4
20260902041545 69 49 0.0 3.0 0.00 0.30 0.27 62 1022.4
20260902040043 69 49 1.0 2.0 0.00 0.30 0.27 61 1022.2
20260902034555 70 49 2.0 3.0 0.00 0.30 0.27 60 1022.1
20260902033055 69 49 0.0 2.0 0.00 0.30 0.27 58 1021.9
20260902031542 70 49 2.0 4.0 0.00 0.30 0.27 57 1021.7
20260902030041 70 49 0.0 3.0 0.00 0.30 0.27 57 1021.6
20260902024545 70 53 0.0 4.0 0.00 0.30 0.27 56 1021.5
20260902023042 70 29 1.0 5.0 0.00 0.30 0.27 56 1021.3
20260902021540 71 342 4.0 11.0 0.00 0.30 0.27 56 1021.2
20260902020041 71 329 4.0 9.0 0.00 0.30 0.27 56 1021.0
20260902014540 72 343 4.0 13.0 0.00 0.30 0.27 55 1020.9
20260902013039 75 300 6.0 14.0 0.00 0.30 0.27 49 1020.8
20260902011538 76 238 4.0 8.0 0.00 0.30 0.27 40 1020.7
20260902010037 76 234 4.0 9.0 0.00 0.30 0.27 39 1020.7
20260902004538 77 313 3.0 8.0 0.00 0.30 0.27 39 1020.6
20260902003036 78 207 5.0 11.0 0.00 0.30 0.27 36 1020.6
20260902001536 79 240 3.0 11.0 0.00 0.30 0.27 36 1020.7
20260902000038 79 196 3.0 10.0 0.00 0.30 0.27 35 1020.7